This is the latest recevied weather packets stored in our database for station/object LU3HGB-WX. If no packets are shown the sender has not sent any weather packets the latest 10 day(s).
| Time | Temp. | Humidity | Pressure | Rain* | Wind** | Luminosity | Snow |
|---|---|---|---|---|---|---|---|
| 1777385259 | 12.78° C | 56% | 1019 hPa | 0 mm | - | 550 W/m² | - |
| 1777384962 | 12.78° C | 64% | 1019 hPa | 0 mm | - | 512 W/m² | - |
| 1777384659 | 12.22° C | 64% | 1019 hPa | 0 mm | - | 151 W/m² | - |
| 1777384360 | 12.22° C | 66% | 1019 hPa | 0 mm | - | 394 W/m² | - |
| 1777384060 | 12.22° C | 64% | 1019 hPa | 0 mm | - | 260 W/m² | - |
| 1777383760 | 11.67° C | 64% | 1019 hPa | 0 mm | - | 278 W/m² | - |
| 1777383460 | 11.67° C | 64% | 1019 hPa | 0 mm | - | 351 W/m² | - |
| 1777383160 | 11.11° C | 71% | 1019 hPa | 0 mm | - | 412 W/m² | - |
| 1777382860 | 10° C | 74% | 1019 hPa | 0 mm | - | 487 W/m² | - |
| 1777382560 | 9.44° C | 77% | 1019 hPa | 0 mm | - | 305 W/m² | - |
| 1777382260 | 8.89° C | 82% | 1019 hPa | 0 mm | - | 371 W/m² | - |
| 1777381960 | 8.33° C | 85% | 1019 hPa | 0 mm | - | 422 W/m² | - |
| 1777381660 | 7.78° C | 85% | 1019 hPa | 0 mm | - | 208 W/m² | - |
| 1777381360 | 7.78° C | 85% | 1019 hPa | 0 mm | - | 161 W/m² | - |
| 1777381060 | 7.78° C | 86% | 1019 hPa | 0 mm | - | 151 W/m² | - |
| 1777380760 | 7.78° C | 87% | 1019 hPa | 0 mm | - | 155 W/m² | - |
| 1777380462 | 7.78° C | 87% | 1019 hPa | 0 mm | - | 159 W/m² | - |
| 1777380159 | 7.78° C | 87% | 1018 hPa | 0 mm | - | 136 W/m² | - |
| 1777379860 | 7.78° C | 85% | 1018 hPa | 0 mm | - | 119 W/m² | - |
| 1777379559 | 7.22° C | 87% | 1019 hPa | 0 mm | - | 112 W/m² | - |
| 1777379259 | 7.22° C | 86% | 1019 hPa | 0 mm | - | 99 W/m² | - |
| 1777378960 | 7.22° C | 87% | 1019 hPa | 0 mm | - | 83 W/m² | - |
| 1777378659 | 6.67° C | 87% | 1019 hPa | 0 mm | - | 66 W/m² | - |
| 1777378360 | 6.67° C | 88% | 1019 hPa | 0 mm | - | 55 W/m² | - |
| 1777378060 | 6.67° C | 89% | 1019 hPa | 0 mm | - | 56 W/m² | - |
* Rain latest hour (hover to see other rain measurements)
** Current wind speed in m/s (hover to see current wind gust speed)